星链-32869 (STARLINK-32869)

导读

STARLINK-32869是美国SpaceX星链星座的成员卫星,于2025年2月1日发射入轨,星链星座是全球规模最大的低轨卫星互联网星座,该卫星承担为全球尤其是偏远地区提供高速低延迟宽带互联网服务的任务,属于SpaceX持续扩张星链网络部署计划中的一环,助力实现全球无缝网络覆盖的建设目标。

基本信息
目录编号:
62859
目录名称:
STARLINK-32869
国际标识:
2025-022F
轨道中心:
EARTH
卫星名称:
星链-32869
卫星全名:
星链-32869 (STARLINK-32869)
卫星状态:
在轨 (已飞行498 天)
发射日期:
2025-02-01 UTC
国别 :
美国 (US)
星等 :
--
轨道信息
数据来源 国际轨道数据
星历时间: 2026-06-14T04:14:14+0800
11小时前
查看轨道信息
半长轴: 6853.205km
偏心率: 0.0002594
轨道倾角: 53.161°
近地点辐角 43.471°
升交点赤经 42.835°
平近点角 316.650°
近地点: 473.29km
远地点: 476.846km
周期: 94.102分钟
每日圈数: 15.302493
详细信息
固有亮度:
5
最大亮度:
2.5
卫星平台:
Starlink V1.0
覆盖范围:
全球
运营商:
太空探索技术公司
运营商所在国:
美国
制造商(研发单位):
太空探索技术公司
制造商所在国:
美国
使用方式:
暂无
卫星简介
Starlink 计划是 SpaceX 推出的全球卫星互联网项目,通过发射低轨道卫星,为全球尤其是偏远地区提供高速、低延迟的互联网服务。自 2019 年起,Starlink 已部署数千颗卫星,旨在缩小全球数字鸿沟,推动互联网普及。该项目还为军事、航空等行业提供通信支持,带来广泛经济效益。
2D轨道图
3D轨道图
轨道高度分析图
轨道倾角分析图
轨道综合分析图
查看轨道综合分析图